DW4238 Weather Reports


time (UTC)temp
C
wind
direction
speed
KPH
gust
KPH
rain 1hr
cm
rain 24hr
cm
rain mn
cm
humidity
%
barometer
mb
20260905233036 31 181 16.1 25.7 0.00 0.00 0.00 66 1010.6
20260905232541 32 94 9.7 19.3 0.00 0.00 0.00 66 1010.4
20260905231614 32 69 9.7 25.7 0.00 0.00 0.00 65 1010.3
20260905231119 32 77 12.9 25.7 0.00 0.00 0.00 65 1010.2
20260905230624 32 63 6.4 9.7 0.00 0.00 0.00 66 1010.2
20260905230034 32 54 3.2 8.0 0.00 0.00 0.00 66 1010.2
20260905225539 32 63 4.8 11.3 0.00 0.00 0.00 66 1010.2
20260905224602 32 41 4.8 14.5 0.00 0.00 0.00 67 1010.1
20260905224111 32 63 6.4 16.1 0.00 0.00 0.00 67 1010.1
20260905223131 32 30 8.0 16.1 0.00 0.00 0.00 65 1010.2
20260905222621 32 34 8.0 17.7 0.00 0.00 0.00 64 1010.2
20260905222128 32 41 9.7 17.7 0.00 0.00 0.00 64 1010.2
20260905221553 32 13 9.7 17.7 0.00 0.00 0.00 64 1010.1
20260905221105 32 30 8.0 16.1 0.00 0.00 0.00 63 1010.0
20260905220603 33 14 11.3 19.3 0.00 0.00 0.00 61 1010.0
20260905220034 33 22 8.0 19.3 0.00 0.00 0.00 59 1010.0
20260905215538 34 33 9.7 17.7 0.00 0.00 0.00 55 1010.0
20260905214608 35 142 3.2 12.9 0.00 0.00 0.00 53 1010.2
20260905214112 35 144 8.0 12.9 0.00 0.00 0.00 52 1010.2
20260905213629 35 150 4.8 9.7 0.00 0.00 0.00 53 1010.2
20260905213056 35 86 4.8 14.5 0.00 0.00 0.00 54 1010.2
20260905212539 35 69 6.4 14.5 0.00 0.00 0.00 54 1010.2
20260905212151 35 120 6.4 14.5 0.00 0.00 0.00 54 1010.2
20260905211550 35 94 8.0 14.5 0.00 0.00 0.00 54 1010.2
20260905211101 35 71 6.4 12.9 0.00 0.00 0.00 56 1010.2
20260905210613 35 120 4.8 12.9 0.00 0.00 0.00 55 1010.2
20260905210034 35 98 6.4 24.1 0.00 0.00 0.00 56 1010.3
20260905205546 35 149 11.3 24.1 0.00 0.00 0.00 57 1010.3
20260905204613 34 84 4.8 14.5 0.00 0.00 0.00 57 1010.4
20260905204121 34 69 1.6 14.5 0.00 0.00 0.00 58 1010.4
20260905203100 34 88 4.8 11.3 0.00 0.00 0.00 57 1010.7
20260905202543 34 138 3.2 14.5 0.00 0.00 0.00 58 1010.8
20260905201605 34 148 8.0 14.5 0.00 0.00 0.00 57 1010.9
20260905201118 34 169 6.4 12.9 0.00 0.00 0.00 57 1011.0
20260905200629 33 200 4.8 16.1 0.00 0.00 0.00 58 1011.0
20260905200049 33 137 8.0 17.7 0.00 0.00 0.00 59 1011.2
20260905195604 33 138 1.6 11.3 0.00 0.00 0.00 59 1011.2
20260905195105 33 128 3.2 12.9 0.00 0.00 0.00 59 1011.2
20260905194536 33 129 4.8 14.5 0.00 0.00 0.00 58 1011.2
20260905194045 33 113 6.4 14.5 0.00 0.00 0.00 59 1011.2
20260905193650 33 106 8.0 14.5 0.00 0.00 0.00 59 1011.4
20260905193057 33 136 9.7 14.5 0.00 0.00 0.00 60 1011.4
20260905192547 33 144 4.8 11.3 0.00 0.00 0.00 60 1011.5
20260905192106 33 280 3.2 8.0 0.00 0.00 0.00 59 1011.7
20260905191539 33 145 0.0 8.0 0.00 0.00 0.00 63 1011.8
20260905191049 33 144 4.8 12.9 0.00 0.00 0.00 61 1011.9
20260905190116 33 108 3.2 11.3 0.00 0.00 0.00 63 1012.1
20260905185628 33 167 4.8 11.3 0.00 0.00 0.00 63 1012.1
20260905185107 32 154 0.0 12.9 0.00 0.00 0.00 65 1012.2
20260905184539 32 151 4.8 12.9 0.00 0.00 0.00 64 1012.4
20260905183540 32 169 6.4 14.5 0.00 0.00 0.00 64 1012.5
20260905183131 32 179 6.4 12.9 0.00 0.00 0.00 65 1012.5
20260905182535 32 183 6.4 9.7 0.00 0.00 0.00 66 1012.7
20260905181557 32 192 4.8 14.5 0.00 0.00 0.00 69 1012.9
20260905181114 32 121 4.8 14.5 0.00 0.00 0.00 69 1012.9
20260905180626 32 132 6.4 14.5 0.00 0.00 0.00 69 1013.0
20260905180046 31 123 4.8 17.7 0.00 0.00 0.00 71 1013.2
20260905175536 31 153 11.3 17.7 0.00 0.00 0.00 73 1013.2
20260905174557 31 146 1.6 12.9 0.00 0.00 0.00 73 1013.3
20260905174109 31 355 6.4 14.5 0.00 0.00 0.00 75 1013.4
20260905173131 30 140 1.6 12.9 0.00 0.00 0.00 77 1013.6
20260905172622 30 66 1.6 6.4 0.00 0.00 0.00 78 1013.7
20260905172124 30 313 3.2 9.7 0.00 0.00 0.00 78 1013.8
20260905171556 30 313 6.4 12.9 0.00 0.00 0.00 79 1013.8
20260905171100 30 327 6.4 14.5 0.00 0.00 0.00 78 1013.8
20260905170607 30 334 9.7 14.5 0.00 0.00 0.00 78 1013.8
20260905170036 30 305 8.0 12.9 0.00 0.00 0.00 76 1013.8
20260905165540 30 322 8.0 14.5 0.00 0.00 0.00 77 1013.9
20260905164610 30 315 8.0 12.9 0.00 0.00 0.00 76 1013.8
20260905164115 31 339 6.4 9.7 0.00 0.00 0.00 75 1013.8
20260905163626 31 294 0.0 4.8 0.00 0.00 0.00 74 1013.8
20260905163051 31 279 0.0 4.8 0.00 0.00 0.00 74 1013.9
20260905162604 31 278 0.0 6.4 0.00 0.00 0.00 76 1013.9
20260905162110 30 270 3.2 11.3 0.00 0.00 0.00 76 1013.9
20260905161536 30 254 1.6 11.3 0.00 0.00 0.00 75 1013.8
20260905161047 30 252 4.8 11.3 0.00 0.00 0.00 77 1013.8
20260905160108 30 243 3.2 8.0 0.00 0.00 0.00 79 1013.8
20260905155619 30 216 1.6 8.0 0.00 0.00 0.00 79 1013.8
20260905155124 30 215 6.4 11.3 0.00 0.00 0.00 79 1013.8
20260905154556 30 224 8.0 11.3 0.00 0.00 0.00 79 1013.8
20260905154108 30 244 6.4 12.9 0.00 0.00 0.00 79 1013.8
20260905153602 30 249 4.8 9.7 0.00 0.00 0.00 80 1013.9
20260905153033 30 255 6.4 8.0 0.00 0.00 0.00 82 1013.9
20260905152539 29 239 4.8 8.0 0.00 0.00 0.00 82 1013.9
20260905151608 29 234 6.4 11.3 0.00 0.00 0.00 84 1013.9
20260905151052 29 223 8.0 11.3 0.00 0.00 0.00 84 1013.9
20260905150645 29 240 6.4 11.3 0.00 0.00 0.00 85 1013.9
20260905150049 28 221 6.4 11.3 0.00 0.00 0.00 86 1013.9
20260905145601 28 240 4.8 11.3 0.00 0.00 0.00 86 1013.8
20260905144604 28 209 1.6 8.0 0.00 0.00 0.00 88 1013.8
20260905144049 28 201 1.6 6.4 0.00 0.00 0.00 88 1013.8
20260905143118 28 197 1.6 9.7 0.00 0.00 0.00 89 1013.8
20260905142602 28 197 4.8 9.7 0.00 0.00 0.00 89 1013.8
20260905142115 27 196 1.6 6.4 0.00 0.00 0.00 90 1013.8
20260905141542 27 195 3.2 6.4 0.00 0.00 0.00 90 1013.8
20260905141050 27 193 4.8 6.4 0.00 0.00 0.00 90 1013.8
20260905140122 27 158 0.0 0.0 0.00 0.00 0.00 91 1013.9
20260905135622 27 155 0.0 0.0 0.00 0.00 0.00 91 1013.8
20260905135033 27 155 0.0 0.0 0.00 0.00 0.00 91 1013.7
20260905134539 27 155 0.0 0.0 0.00 0.00 0.00 91 1013.6
20260905134051 27 154 0.0 0.0 0.00 0.00 0.00 91 1013.7
20260905133113 26 155 0.0 3.2 0.00 0.00 0.00 92 1013.5
20260905132606 26 155 0.0 3.2 0.00 0.00 0.00 93 1013.5
20260905132109 26 155 0.0 0.0 0.00 0.00 0.00 93 1013.6
20260905131538 26 155 0.0 0.0 0.00 0.00 0.00 93 1013.6
20260905131039 26 155 0.0 0.0 0.00 0.00 0.00 93 1013.4
20260905130652 26 155 0.0 0.0 0.00 0.00 0.00 93 1013.4
20260905130058 25 155 0.0 0.0 0.00 0.00 0.00 93 1013.3
20260905125603 25 155 0.0 0.0 0.00 0.00 0.00 93 1013.3
20260905124632 25 155 0.0 0.0 0.00 0.00 0.00 93 1013.2
20260905124137 25 155 0.0 0.0 0.00 0.00 0.00 93 1013.1
20260905123627 25 155 0.0 0.0 0.00 0.00 0.00 93 1013.0
20260905123051 25 155 0.0 0.0 0.00 0.00 0.00 93 1012.9
20260905122602 25 155 0.0 0.0 0.00 0.00 0.00 92 1012.9
20260905121625 25 155 0.0 0.0 0.00 0.00 0.00 92 1012.9
20260905121137 25 155 0.0 0.0 0.00 0.00 0.00 92 1012.8
20260905120627 25 155 0.0 0.0 0.00 0.00 0.00 92 1012.7
20260905120047 25 155 0.0 0.0 0.00 0.00 0.00 92 1012.6
20260905115559 25 155 0.0 0.0 0.00 0.00 0.00 92 1012.6
20260905114622 25 155 0.0 0.0 0.00 0.00 0.00 92 1012.7
20260905114037 25 155 0.0 0.0 0.00 0.00 0.00 92 1012.6
20260905113541 25 155 0.0 0.0 0.00 0.00 0.00 92 1012.6
20260905113153 25 155 0.0 0.0 0.00 0.00 0.00 92 1012.5
20260905112624 25 155 0.0 0.0 0.00 0.00 0.00 92 1012.4
20260905111623 25 155 0.0 0.0 0.00 0.00 0.00 92 1012.3
20260905111128 25 155 0.0 0.0 0.00 0.00 0.00 92 1012.3
20260905110635 25 155 0.0 0.0 0.00 0.00 0.00 92 1012.3
20260905110101 25 155 0.0 0.0 0.00 0.00 0.00 92 1012.2
20260905105544 25 155 0.0 0.0 0.00 0.00 0.00 92 1012.2
20260905104610 25 155 0.0 0.0 0.00 0.00 0.00 91 1012.2
20260905104121 25 155 0.0 0.0 0.00 0.00 0.00 91 1012.1
20260905103626 25 155 0.0 0.0 0.00 0.00 0.00 91 1012.1
20260905103050 25 155 0.0 0.0 0.00 0.00 0.00 91 1012.2
20260905102555 25 155 0.0 0.0 0.00 0.00 0.00 92 1012.1
20260905102103 25 155 0.0 0.0 0.00 0.00 0.00 92 1012.1
20260905101534 25 155 0.0 0.0 0.00 0.00 0.00 92 1012.1
20260905101039 25 155 0.0 0.0 0.00 0.00 0.00 92 1012.0
20260905100112 25 155 0.0 0.0 0.00 0.00 0.00 91 1012.1
20260905095617 25 155 0.0 0.0 0.00 0.08 0.00 91 1012.1
20260905095130 25 155 0.0 0.0 0.00 0.08 0.00 91 1012.1
20260905094550 25 155 0.0 0.0 0.00 0.08 0.00 91 1012.1
20260905094102 25 155 0.0 0.0 0.00 0.08 0.00 91 1012.1
20260905093611 25 155 0.0 0.0 0.00 0.08 0.00 91 1012.2
20260905093033 25 155 0.0 0.0 0.00 0.08 0.00 91 1012.1
20260905092119 25 155 0.0 0.0 0.00 0.08 0.00 91 1012.2
20260905091550 25 155 0.0 0.0 0.00 0.08 0.00 91 1012.3
20260905091055 25 155 0.0 0.0 0.00 0.08 0.00 91 1012.2
20260905090603 25 155 0.0 0.0 0.00 0.08 0.00 91 1012.2
20260905090034 25 155 0.0 0.0 0.00 0.08 0.00 92 1012.2
20260905085539 25 155 0.0 0.0 0.00 0.10 0.00 92 1012.2
20260905084608 25 155 0.0 0.0 0.00 0.10 0.00 91 1012.0
20260905084113 25 155 0.0 4.8 0.00 0.10 0.00 91 1012.1
20260905083626 25 155 1.6 8.0 0.00 0.10 0.00 91 1012.0
20260905083049 25 155 3.2 8.0 0.00 0.10 0.00 91 1012.1
20260905082601 25 156 3.2 8.0 0.00 0.10 0.00 91 1012.1
20260905081038 26 157 6.4 9.7 0.00 0.10 0.00 90 1012.0
20260905080100 26 159 1.6 8.0 0.00 0.10 0.00 90 1012.0
20260905075549 26 161 4.8 8.0 0.00 0.10 0.00 90 1012.1
20260905074615 26 165 6.4 12.9 0.00 0.10 0.00 90 1012.1
20260905074106 26 166 4.8 12.9 0.00 0.10 0.00 90 1012.1
20260905073104 26 175 4.8 12.9 0.00 0.10 0.00 90 1012.1
20260905072615 26 186 4.8 12.9 0.00 0.10 0.00 89 1012.1
20260905071637 26 178 8.0 14.5 0.00 0.10 0.00 89 1012.2
20260905071128 26 188 8.0 14.5 0.00 0.10 0.00 89 1012.3
20260905070632 26 186 8.0 12.9 0.00 0.10 0.00 89 1012.2
20260905070059 26 183 6.4 11.3 0.00 0.10 0.00 89 1012.3
20260905065548 26 178 6.4 9.7 0.00 0.10 0.00 89 1012.5
20260905065058 26 184 4.8 9.7 0.00 0.10 0.00 89 1012.5
20260905064550 26 172 6.4 9.7 0.00 0.10 0.00 89 1012.5
20260905064040 26 175 6.4 9.7 0.00 0.10 0.00 89 1012.6
20260905063534 26 177 4.8 8.0 0.00 0.10 0.00 88 1012.6
20260905063047 26 184 6.4 11.3 0.00 0.10 0.00 88 1012.7
20260905062538 26 174 6.4 11.3 0.00 0.10 0.00 88 1012.7
20260905062048 26 170 6.4 12.9 0.00 0.10 0.00 88 1012.6
20260905061542 26 171 8.0 12.9 0.00 0.10 0.00 88 1012.6
20260905061119 26 163 8.0 11.3 0.00 0.10 0.00 88 1012.6
20260905060540 26 163 4.8 12.9 0.00 0.10 0.00 88 1012.6
20260905060040 26 157 6.4 12.9 0.00 0.10 0.00 87 1012.6
20260905055551 26 167 4.8 9.7 0.00 0.10 0.00 87 1012.6
20260905055034 27 173 6.4 9.7 0.00 0.10 0.00 87 1012.7
20260905054534 27 175 8.0 11.3 0.00 0.10 0.00 87 1012.6
20260905054045 27 173 8.0 12.9 0.00 0.10 0.00 86 1012.7
20260905053555 27 180 9.7 16.1 0.00 0.10 0.00 86 1012.6
20260905053048 27 188 9.7 16.1 0.00 0.10 0.00 86 1012.6
20260905052538 27 163 9.7 14.5 0.00 0.10 0.00 86 1012.6
20260905052049 27 174 9.7 11.3 0.00 0.10 0.00 86 1012.4
20260905051542 27 175 9.7 11.3 0.00 0.10 0.00 85 1012.5
20260905051052 27 165 9.7 16.1 0.00 0.10 0.00 85 1012.6
20260905050542 27 171 11.3 17.7 0.00 0.10 0.00 85 1012.7
20260905050122 27 169 11.3 14.5 0.00 0.10 0.00 85 1012.6
20260905045626 27 161 11.3 14.5 0.00 0.10 0.10 85 1012.6
20260905044627 27 151 9.7 12.9 0.00 0.10 0.10 85 1012.7
20260905044043 27 182 9.7 11.3 0.00 0.10 0.10 85 1012.8
20260905043105 27 184 4.8 11.3 0.00 0.10 0.10 86 1012.8
20260905042617 27 160 6.4 12.9 0.00 0.10 0.10 86 1012.8
20260905042121 27 153 8.0 12.9 0.00 0.10 0.10 86 1012.8
20260905041548 27 146 8.0 12.9 0.00 0.10 0.10 85 1012.8
20260905041100 27 148 8.0 12.9 0.00 0.10 0.10 85 1012.8
20260905040105 27 146 6.4 12.9 0.00 0.10 0.10 85 1012.7
20260905035610 27 153 8.0 12.9 0.00 0.10 0.10 85 1012.8
20260905035121 27 151 8.0 12.9 0.00 0.10 0.10 84 1012.9
20260905034542 27 148 8.0 12.9 0.00 0.10 0.10 84 1012.9
20260905034053 27 144 6.4 11.3 0.00 0.10 0.10 84 1012.9
20260905033603 27 142 6.4 11.3 0.00 0.10 0.10 83 1012.9
20260905033148 27 138 4.8 11.3 0.00 0.10 0.10 83 1012.9
20260905032537 27 142 3.2 8.0 0.00 0.10 0.10 82 1012.9
20260905032121 27 144 3.2 8.0 0.00 0.10 0.10 82 1012.8
20260905031549 27 150 4.8 9.7 0.00 0.10 0.10 82 1012.8
20260905031101 28 150 4.8 8.0 0.00 0.10 0.10 82 1012.8
20260905030605 28 148 6.4 12.9 0.00 0.10 0.10 81 1012.7
20260905030038 28 143 8.0 12.9 0.00 0.10 0.10 81 1012.7
20260905025550 28 138 6.4 11.3 0.00 0.10 0.10 80 1012.7
20260905024612 28 128 3.2 9.7 0.00 0.10 0.10 79 1012.6
20260905024117 28 128 0.0 8.0 0.00 0.10 0.10 79 1012.5
20260905023629 28 129 3.2 8.0 0.00 0.10 0.10 79 1012.4
20260905023055 28 130 0.0 1.6 0.00 0.10 0.10 79 1012.4
20260905022600 28 130 0.0 0.0 0.00 0.10 0.10 79 1012.3
20260905022111 28 130 0.0 3.2 0.00 0.10 0.10 79 1012.3
20260905021542 28 130 0.0 1.6 0.00 0.10 0.10 79 1012.2
20260905021046 28 130 0.0 1.6 0.00 0.10 0.10 80 1012.3
20260905020108 28 130 0.0 3.2 0.00 0.10 0.10 79 1012.1
20260905015619 28 130 0.0 4.8 0.00 0.10 0.10 79 1012.1
20260905015131 28 130 1.6 4.8 0.00 0.10 0.10 79 1012.1
20260905014552 28 129 0.0 1.6 0.00 0.10 0.10 79 1011.8
20260905014042 29 132 0.0 1.6 0.00 0.10 0.10 79 1011.9
20260905013109 29 132 0.0 1.6 0.00 0.10 0.10 78 1011.8
20260905012620 29 132 0.0 8.0 0.00 0.10 0.10 78 1011.9
20260905011619 29 136 0.0 1.6 0.00 0.10 0.10 77 1011.8
20260905011110 30 138 0.0 6.4 0.00 0.10 0.10 77 1011.7
20260905010131 30 140 3.2 11.3 0.00 0.10 0.10 76 1011.7
20260905005636 30 117 1.6 9.7 0.00 0.10 0.10 76 1011.4
20260905005126 30 113 3.2 9.7 0.00 0.10 0.10 75 1011.5
20260905004552 30 113 1.6 6.4 0.00 0.10 0.10 75 1011.5
20260905004057 30 107 3.2 9.7 0.00 0.10 0.10 74 1011.4
20260905003100 31 120 4.8 14.5 0.00 0.10 0.10 73 1011.3
20260905002551 31 125 8.0 14.5 0.00 0.10 0.10 73 1011.3
20260905001614 31 124 4.8 14.5 0.00 0.10 0.10 72 1011.2
20260905001105 31 87 4.8 12.9 0.00 0.10 0.10 72 1011.3
20260905000127 31 124 4.8 14.5 0.00 0.10 0.10 71 1011.3
20260904235538 31 105 4.8 14.5 0.00 0.10 0.10 70 1011.2
20260904234605 32 126 6.4 16.1 0.00 0.10 0.10 70 1011.3
20260904234116 32 83 8.0 16.1 0.00 0.10 0.10 69 1011.2
20260904233611 32 108 8.0 19.3 0.00 0.10 0.10 69 1011.1